K7OLI-13 Weather Reports


Display with metric or nautical units.
time (UTC)temp
F
wind
direction
speed
MPH
gust
MPH
rain 1hr
in
rain 24hr
in
rain mn
in
humidity
%
barometer
mb
20260508065033 54 201 8.0 9.0 0.00 0.00 0.00 72 1013.1
20260508064022 54 192 8.0 10.0 0.00 0.00 0.00 72 1013.1
20260508063030 55 199 7.0 8.0 0.00 0.00 0.00 72 1013.1
20260508062019 55 214 7.0 10.0 0.00 0.00 0.00 72 1013.1
20260508061027 55 216 6.0 8.0 0.00 0.00 0.00 72 1013.1
20260508060021 55 204 6.0 9.0 0.00 0.00 0.00 72 1013.1
20260508055025 56 194 7.0 9.0 0.00 0.00 0.00 70 1013.1
20260508054032 57 200 8.0 11.0 0.00 0.00 0.00 69 1013.1
20260508053021 57 206 7.0 10.0 0.00 0.00 0.00 69 1013.1
20260508052029 57 214 6.0 9.0 0.00 0.00 0.00 69 1013.1
20260508051033 58 204 8.0 9.0 0.00 0.00 0.00 68 1013.1
20260508050042 58 186 6.0 9.0 0.00 0.00 0.00 67 1013.1
20260508045034 59 196 7.0 10.0 0.00 0.00 0.00 65 1013.1
20260508044023 59 194 8.0 11.0 0.00 0.00 0.00 64 1013.1
20260508043030 59 208 7.0 11.0 0.00 0.00 0.00 64 1013.1
20260508042022 60 228 7.0 11.0 0.00 0.00 0.00 64 1013.1
20260508041028 60 221 8.0 10.0 0.00 0.00 0.00 64 1013.1
20260508040025 61 211 5.0 9.0 0.00 0.00 0.00 64 1013.1
20260508035045 61 223 8.0 10.0 0.00 0.00 0.00 65 1013.1
20260508034033 62 211 6.0 8.0 0.00 0.00 0.00 65 1013.1
20260508033022 63 223 7.0 9.0 0.00 0.00 0.00 64 1013.1
20260508032031 63 222 7.0 9.0 0.00 0.00 0.00 63 1012.1
20260508031019 65 224 7.0 10.0 0.00 0.00 0.00 62 1012.2
20260508030027 66 226 8.0 10.0 0.00 0.00 0.00 60 1012.2
20260508025054 68 220 7.0 9.0 0.00 0.00 0.00 57 1012.2
20260508024024 70 146 2.0 2.0 0.00 0.00 0.00 44 1012.2
20260508023032 70 44 2.0 3.0 0.00 0.00 0.00 43 1012.2
20260508022022 70 70 4.0 5.0 0.00 0.00 0.00 43 1012.2
20260508021030 70 60 4.0 6.0 0.00 0.00 0.00 43 1012.2
20260508020019 71 48 4.0 5.0 0.00 0.00 0.00 43 1012.2
20260508015026 71 43 5.0 7.0 0.00 0.00 0.00 42 1013.2
20260508014118 72 59 4.0 6.0 0.00 0.00 0.00 41 1013.2
20260508013042 72 66 4.0 5.0 0.00 0.00 0.00 43 1013.2
20260508012054 72 48 3.0 5.0 0.00 0.00 0.00 44 1013.2
20260508011021 72 53 4.0 6.0 0.00 0.00 0.00 44 1013.2
20260508010025 72 343 3.0 5.0 0.00 0.00 0.00 44 1013.2
20260508005153 0 338 5.0 5.0 0.00 0.00 0.00
20260508004045 0 0.0 0.0 0.00 0.00 0.00
20260508002653 73 6.0 7.0 0.00 0.00 0.00 43 1013.2
20260508002214 0 55 4.0 5.0 0.00 0.00 0.00
20260507235029 73 18 3.0 5.0 0.00 0.00 0.00 41 1013.2
20260507234037 73 341 5.0 6.0 0.00 0.00 0.00 41 1014.2
20260507233026 72 242 4.0 5.0 0.00 0.00 0.00 42 1014.2
20260507232034 73 264 4.0 6.0 0.00 0.00 0.00 40 1014.2
20260507231106 73 274 4.0 6.0 0.00 0.00 0.00 41 1014.2
20260507230027 72 16 4.0 5.0 0.00 0.00 0.00 43 1014.2
20260507225021 72 293 4.0 6.0 0.00 0.00 0.00 42 1014.2
20260507224029 72 336 4.0 6.0 0.00 0.00 0.00 43 1014.2
20260507223037 71 6.0 6.0 0.00 0.00 0.00 41
20260507222140 73 304 4.0 6.0 0.00 0.00 0.00 41 1015.2
20260507221034 72 248 5.0 6.0 0.00 0.00 0.00 43 1015.2
20260507220025 71 73 2.0 4.0 0.00 0.00 0.00 46 1015.2
20260507215019 70 300 5.0 7.0 0.00 0.00 0.00 47 1015.2
20260507214021 69 37 4.0 6.0 0.00 0.00 0.00 49 1015.2
20260507213028 69 9 5.0 6.0 0.00 0.00 0.00 50 1015.2
20260507212037 69 324 5.0 7.0 0.00 0.00 0.00 51 1015.2
20260507211027 71 269 5.0 9.0 0.00 0.00 0.00 50 1015.2
20260507210030 69 270 3.0 5.0 0.00 0.00 0.00 52 1015.2
20260507205020 70 231 4.0 5.0 0.00 0.00 0.00 51 1016.2
20260507204032 69 159 3.0 6.0 0.00 0.00 0.00 54 1016.2
20260507203021 69 258 3.0 4.0 0.00 0.00 0.00 53 1016.2
20260507202049 67 290 3.0 4.0 0.00 0.00 0.00 55 1016.1
20260507201037 67 24 3.0 7.0 0.00 0.00 0.00 57 1016.1
20260507200026 68 284 4.0 5.0 0.00 0.00 0.00 56 1016.2
20260507195021 68 300 4.0 6.0 0.00 0.00 0.00 57 1016.2
20260507194024 67 1 4.0 6.0 0.00 0.00 0.00 59 1016.2
20260507193031 66 296 4.0 6.0 0.00 0.00 0.00 60 1016.2
20260507192021 66 44 5.0 7.0 0.00 0.00 0.00 60 1016.1
20260507191049 67 198 4.0 8.0 0.00 0.00 0.00 58 1016.9
20260507190037 64 259 2.0 4.0 0.00 0.00 0.00 61 1017.1
20260507185022 63 37 3.0 6.0 0.00 0.00 0.00 63 1017.1
20260507184054 63 17 3.0 6.0 0.00 0.00 0.00 64 1017.1
20260507183024 63 6 5.0 8.0 0.00 0.00 0.00 64 1017.1
20260507182033 63 331 4.0 7.0 0.00 0.00 0.00 65 1017.1
20260507181020 63 257 5.0 8.0 0.00 0.00 0.00 65 1017.1
20260507180028 63 51 4.0 6.0 0.00 0.00 0.00 65 1017.1
20260507175023 62 23 4.0 6.0 0.00 0.00 0.00 66 1017.1
20260507174026 62 54 5.0 8.0 0.00 0.00 0.00 65 1017.1
20260507173034 62 325 4.0 6.0 0.00 0.00 0.00 65 1017.1
20260507172025 61 335 4.0 6.0 0.00 0.00 0.00 67 1017.1
20260507171033 60 325 4.0 6.0 0.00 0.00 0.00 69 1017.1
20260507170020 60 22 4.0 6.0 0.00 0.00 0.00 68 1017.1
20260507165024 61 14 4.0 6.0 0.00 0.00 0.00 67 1017.1
20260507164036 60 326 4.0 6.0 0.00 0.00 0.00 68 1017.1
20260507163027 61 328 3.0 5.0 0.00 0.00 0.00 67 1017.1
20260507162033 61 273 4.0 6.0 0.00 0.00 0.00 67 1017.1
20260507161025 61 359 4.0 6.0 0.00 0.00 0.00 68 1017.1
20260507160035 59 349 4.0 5.0 0.00 0.00 0.00 71 1017.1
20260507155020 58 16 4.0 6.0 0.00 0.00 0.00 73 1017.1
20260507154033 57 1 4.0 8.0 0.00 0.00 0.00 74 1017.1
20260507153036 56 325 4.0 6.0 0.00 0.00 0.00 75 1017.1
20260507152044 56 339 4.0 6.0 0.00 0.00 0.00 76 1017.1
20260507151046 56 349 3.0 5.0 0.00 0.00 0.00 77 1017.1
20260507150023 55 13 4.0 6.0 0.00 0.00 0.00 78 1017.1
20260507145026 55 351 3.0 5.0 0.00 0.00 0.00 79 1017.1
20260507144021 55 307 4.0 6.0 0.00 0.00 0.00 80 1017.1
20260507143028 54 332 2.0 4.0 0.00 0.00 0.00 82 1017.1
20260507142036 54 326 3.0 5.0 0.00 0.00 0.00 82 1017.1
20260507141026 54 266 2.0 3.0 0.00 0.00 0.00 83 1017.1
20260507140037 54 251 1.0 3.0 0.00 0.00 0.00 84 1017.1
20260507135023 54 270 1.0 2.0 0.00 0.00 0.00 84 1017.1
20260507134132 53 311 1.0 3.0 0.00 0.00 0.00 84 1017.1
20260507133020 53 340 2.0 3.0 0.00 0.00 0.00 84 1017.1
20260507132029 53 282 2.0 3.0 0.00 0.00 0.00 84 1017.1
20260507131037 53 299 2.0 3.0 0.00 0.00 0.00 84 1017.1
20260507130026 53 291 2.0 3.0 0.00 0.00 0.00 84 1017.1
20260507125028 54 261 1.0 2.0 0.00 0.00 0.00 82 1017.1
20260507124043 54 331 2.0 4.0 0.00 0.00 0.00 82 1017.1
20260507123032 54 337 3.0 4.0 0.00 0.00 0.00 82 1017.1
20260507122040 54 22 2.0 4.0 0.00 0.00 0.00 83 1017.1
20260507121029 54 352 2.0 3.0 0.00 0.00 0.00 83 1017.2
20260507120042 54 3 2.0 3.0 0.00 0.00 0.00 82 1017.2
20260507115029 54 319 2.0 4.0 0.00 0.00 0.00 82 1017.2
20260507114019 54 353 3.0 3.0 0.00 0.00 0.00 82 1017.2
20260507113044 54 9 2.0 4.0 0.00 0.00 0.00 81 1017.2
20260507112053 54 342 3.0 4.0 0.00 0.00 0.00 81 1017.2
20260507111021 54 329 4.0 5.0 0.00 0.00 0.00 81 1017.2
20260507110028 54 339 3.0 4.0 0.00 0.00 0.00 82 1017.2
20260507105050 54 334 3.0 5.0 0.00 0.00 0.00 86 1017.2
20260507104020 54 249 2.0 5.0 0.00 0.00 0.00 88 1017.2
20260507103056 54 235 3.0 4.0 0.00 0.00 0.00 88 1017.2
20260507102026 54 227 3.0 4.0 0.00 0.00 0.00 88 1017.2
20260507101034 54 228 3.0 4.0 0.00 0.00 0.00 88 1017.2
20260507100021 54 236 4.0 5.0 0.00 0.00 0.00 88 1017.2
20260507095031 54 230 3.0 4.0 0.00 0.00 0.00 87 1017.2
20260507094041 54 244 3.0 4.0 0.00 0.00 0.00 87 1018.0
20260507093026 54 236 4.0 5.0 0.00 0.00 0.00 87 1018.2
20260507092054 54 232 3.0 5.0 0.00 0.00 0.00 87 1018.2
20260507091026 54 247 3.0 6.0 0.00 0.00 0.00 87 1018.2
20260507090034 54 234 5.0 5.0 0.00 0.00 0.00 87 1018.2
20260507085021 54 240 4.0 5.0 0.00 0.00 0.00 87 1018.2
20260507084022 54 222 3.0 4.0 0.00 0.00 0.00 87 1018.2
20260507083036 54 244 4.0 5.0 0.00 0.00 0.00 87 1018.2
20260507082026 54 222 3.0 4.0 0.00 0.00 0.00 87 1018.2
20260507081053 54 220 4.0 5.0 0.00 0.00 0.00 87 1018.1
20260507080026 54 225 3.0 5.0 0.00 0.00 0.00 87 1018.1
20260507075053 54 216 4.0 5.0 0.00 0.00 0.00 87 1018.1
20260507074023 54 218 4.0 5.0 0.00 0.00 0.00 87 1018.1
20260507073107 54 234 4.0 4.0 0.00 0.00 0.00 87 1018.1
20260507072036 54 220 5.0 6.0 0.00 0.00 0.00 87 1018.1
20260507071026 54 193 4.0 6.0 0.00 0.00 0.00 87 1018.1
20260507070033 54 193 4.0 5.0 0.00 0.00 0.00 87 1018.1